Location: Burtsch�tz
(51.0528°N, 12.1764°E)
Time: 01:14:51
(UTC+00:00)

SeaSat 1 - Pass Details

Date: 29 October 2020
Orbit: 744 x 747 km, 108.0° (Epoch: 23 November)

Event Time Altitude Azimuth Distance (km) Brightness Sun altitude
Exits shadow 16:20:51 - 81° (E) 2,583 4.5 -5.4°
Reaches altitude 10° 16:21:59 10° 71° (ENE) 2,271 4.3 -5.6°
Maximum altitude 16:25:01 17° 33° (NNE) 1,854 4.1 -6.0°
Drops below altitude 10° 16:28:04 10° 355° (N) 2,277 4.9 -6.5°
Sets 16:31:05 0° 335° (NNW) 3,205 5.9 -7.0°
